Retour au catalogue

STARLINK-5311

ActifCommunicationsVLEO
NORAD 55288·PAYLOAD·🇺🇸 United States

Lancé Jan 19, 2023 depuis Vandenberg Space Force Base

Loading…

Prochains Passages (prochaines 24 heures)

TLE

FraisSource: CelesTrak SupGP

Époque: Sep 14, 2026, 21:01 UTC

1 55288C 23010V   26257.87618056  .00064004  00000+0  53663-2 0  2572
2 55288  69.9997 267.4323 0003823 266.6493 244.1220 14.98277902    13

Suivez STARLINK-5311 en temps réel avec AllMySat

Download on the App Store